[Date Prev][Date Next][Thread Prev][Thread Next] - [Date Index][Thread Index][Author Index]
2 Line ISS Keps 7-17
- Subject: [sarex] 2 Line ISS Keps 7-17
- From: "Dave Larsen PhD" <doc@xxxxxxxxxxx>
- Date: Sat, 16 Jul 2005 22:31:11 -0700
ISS
1 25544U 98067A 05198.12692655 .00013268 00000-0 10487-3 0 9251
2 25544 051.6447 107.5507 0003703 130.3713 022.6611 15.71738427380391
----
Via the sarex mailing list at AMSAT.ORG courtesy of AMSAT-NA.
To unsubscribe, send "unsubscribe sarex" to Majordomo@amsat.org
AMSAT Home